EW2077 Weather Reports


Display with metric or nautical units.
time (UTC)temp
F
wind
direction
speed
MPH
gust
MPH
rain 1hr
in
rain 24hr
in
rain mn
in
humidity
%
barometer
mb
20260901071537 53 344 0.0 0.0 0.02 0.06 0.02 91 1036.4
20260901070035 53 344 0.0 0.0 0.02 0.06 0.02 91 1036.2
20260901064535 53 344 0.0 0.0 0.02 0.06 0.02 91 1036.4
20260901063034 53 344 0.0 0.0 0.02 0.06 0.02 90 1036.8
20260901061529 53 344 0.0 0.0 0.00 0.04 0.00 90 1036.0
20260901060027 53 344 0.0 0.0 0.00 0.04 0.00 90 1036.0
20260901054527 54 344 0.0 0.0 0.00 0.04 0.04 90 1036.2
20260901053027 54 344 0.0 0.0 0.00 0.04 0.04 90 1035.9
20260901051526 54 344 0.0 0.0 0.00 0.04 0.04 90 1035.6
20260901050025 54 344 0.0 0.0 0.00 0.04 0.04 90 1036.0
20260901044528 54 344 0.0 0.0 0.00 0.04 0.04 89 1035.9
20260901043027 54 344 0.0 0.0 0.00 0.04 0.04 89 1036.0
20260901041523 55 344 0.0 0.0 0.00 0.04 0.04 89 1035.9
20260901040023 55 344 0.0 0.0 0.00 0.04 0.04 89 1035.9
20260901034522 56 344 0.0 0.0 0.00 0.04 0.04 89 1035.9
20260901033026 56 344 0.0 0.0 0.00 0.04 0.04 89 1035.8
20260901031530 56 344 0.0 0.0 0.02 0.04 0.04 89 1035.4
20260901030019 56 344 0.0 0.0 0.03 0.04 0.04 88 1035.8
20260901024518 57 344 0.0 0.0 0.03 0.04 0.04 86 1036.0
20260901023025 58 344 0.0 0.0 0.03 0.04 0.04 84 1036.5
20260901021519 60 360 0.0 3.0 0.01 0.02 0.02 78 1036.6
20260901020026 62 153 0.0 0.0 0.00 0.01 0.01 72 1036.2
20260901014516 63 150 0.0 0.0 0.00 0.01 0.01 69 1035.6
20260901013025 65 150 0.0 0.0 0.00 0.01 0.01 67 1035.4
20260901011515 66 150 0.0 0.0 0.00 0.01 0.01 61 1035.1
20260901010013 67 150 0.0 3.0 0.00 0.01 0.01 54 1034.5
20260901004509 67 119 0.0 5.0 0.00 0.01 0.01 52 1034.3
20260901003009 69 155 1.0 7.0 0.00 0.01 0.01 50 1034.3
20260901001512 70 217 0.0 0.0 0.00 0.01 0.01 44 1034.4
20260901000009 71 217 0.0 0.0 0.00 0.01 0.01 43 1034.5
20260831234507 72 213 0.0 0.0 0.00 0.01 0.01 41 1034.4
20260831233007 72 213 0.0 3.0 0.00 0.01 0.01 42 1034.3
20260831231504 72 211 0.0 2.0 0.00 0.01 0.01 40 1034.4
20260831230006 73 213 0.0 4.0 0.00 0.01 0.01 42 1034.4
20260831224503 73 219 1.0 4.0 0.00 0.01 0.01 39 1034.6
20260831223100 73 216 0.0 0.0 0.00 0.01 0.01 40 1034.8
20260831221604 74 215 0.0 3.0 0.00 0.01 0.01 42 1034.7
20260831220055 73 215 0.0 4.0 0.00 0.01 0.01 42 1034.9
20260831214559 73 217 0.0 3.0 0.00 0.02 0.01 43 1035.1
20260831213056 74 217 0.0 4.0 0.00 0.02 0.01 42 1035.2
20260831211553 75 219 0.0 4.0 0.00 0.02 0.01 42 1035.5
20260831210048 75 221 0.0 3.0 0.00 0.02 0.01 38 1035.8
20260831204554 75 221 1.0 4.0 0.00 0.03 0.01 38 1035.8
20260831203059 75 221 0.0 2.0 0.00 0.03 0.01 40 1036.0
20260831201546 75 222 0.0 4.0 0.00 0.03 0.01 40 1036.2
20260831200042 74 219 2.0 6.0 0.00 0.03 0.01 43 1036.4
20260831194539 72 228 1.0 3.0 0.00 0.03 0.01 44 1036.5
20260831193038 72 232 0.0 3.0 0.00 0.03 0.01 43 1036.8
20260831191549 72 281 0.0 0.0 0.00 0.03 0.01 45 1036.9
20260831190035 72 286 0.0 0.0 0.00 0.03 0.01 41 1037.2
20260831184533 71 315 0.0 0.0 0.00 0.03 0.01 43 1037.4
20260831183033 71 325 0.0 2.0 0.00 0.03 0.01 42 1037.4
20260831181532 71 329 0.0 0.0 0.00 0.03 0.01 40 1037.4
20260831180029 70 342 0.0 1.0 0.00 0.03 0.01 46 1037.5
20260831174527 70 342 0.0 0.0 0.00 0.03 0.01 48 1037.6
20260831173025 69 343 0.0 0.0 0.00 0.03 0.01 48 1037.6
20260831171524 69 346 0.0 0.0 0.00 0.03 0.01 46 1037.8
20260831170025 69 346 0.0 0.0 0.00 0.03 0.01 47 1037.8
20260831164533 69 348 0.0 0.0 0.00 0.03 0.01 47 1037.9
20260831163020 68 348 0.0 0.0 0.00 0.03 0.01 48 1037.8
20260831161520 68 348 0.0 0.0 0.00 0.03 0.01 52 1037.7
20260831160013 66 348 0.0 0.0 0.00 0.03 0.01 53 1037.7
20260831154511 66 348 0.0 0.0 0.00 0.03 0.01 54 1037.6
20260831153010 65 348 0.0 0.0 0.00 0.03 0.01 58 1037.7
20260831151503 64 348 0.0 0.0 0.00 0.03 0.01 60 1037.5
20260831150108 62 348 0.0 0.0 0.00 0.03 0.01 64 1037.6
20260831144556 60 348 0.0 0.0 0.00 0.03 0.01 64 1037.8
20260831143103 59 348 0.0 0.0 0.00 0.03 0.01 67 1038.0
20260831141600 58 348 0.0 0.0 0.00 0.03 0.01 72 1037.9
20260831140057 56 348 0.0 0.0 0.00 0.03 0.01 70 1037.8
20260831134555 54 348 0.0 0.0 0.00 0.03 0.01 72 1037.7
20260831133052 53 348 0.0 0.0 0.00 0.03 0.01 72 1037.7
20260831131550 53 348 0.0 0.0 0.00 0.03 0.01 70 1037.6
20260831130047 53 348 0.0 0.0 0.00 0.03 0.01 69 1037.4
20260831124557 53 348 0.0 0.0 0.00 0.03 0.01 70 1037.3
20260831123045 53 348 0.0 0.0 0.00 0.03 0.01 69 1037.1
20260831121542 53 348 0.0 0.0 0.00 0.03 0.01 70 1036.9
20260831120047 53 348 0.0 0.0 0.00 0.03 0.01 70 1036.9
20260831114548 53 348 0.0 0.0 0.00 0.03 0.01 70 1036.7
20260831113040 53 348 0.0 0.0 0.00 0.03 0.01 69 1036.7
20260831111539 53 348 0.0 0.0 0.00 0.03 0.01 70 1036.6
20260831110041 53 348 0.0 0.0 0.00 0.03 0.01 69 1036.5
20260831104548 53 348 0.0 0.0 0.00 0.03 0.01 70 1036.5
20260831103038 53 348 0.0 0.0 0.00 0.03 0.01 69 1036.4
20260831101532 53 348 0.0 0.0 0.00 0.03 0.01 70 1036.4
20260831100041 53 348 0.0 0.0 0.00 0.03 0.01 69 1036.2
20260831094529 54 348 0.0 0.0 0.01 0.03 0.01 67 1036.1
20260831093035 54 348 0.0 0.0 0.01 0.03 0.01 67 1036.0
20260831091524 55 348 0.0 0.0 0.01 0.03 0.01 65 1035.9
20260831090021 56 348 0.0 0.0 0.01 0.03 0.01 65 1035.8
20260831084517 56 348 0.0 0.0 0.00 0.02 0.00 62 1035.7
20260831083030 57 348 0.0 0.0 0.00 0.02 0.00 62 1035.9
20260831081512 58 348 0.0 0.0 0.00 0.02 0.00 62 1036.1
20260831080014 58 348 0.0 0.0 0.00 0.02 0.00 58 1036.1
20260831074508 58 348 0.0 0.0 0.00 0.02 0.00 58 1036.1
20260831073007 58 348 0.0 0.0 0.00 0.02 0.00 60 1036.3